Year,Month,Day,Hour,Minute,Value (Times are PST for temperature in C)
2020,05,05,00,00,9.50
2020,05,05,00,01,9.40
2020,05,05,00,02,9.40
2020,05,05,00,03,9.40
2020,05,05,00,04,9.40
2020,05,05,00,05,9.40
2020,05,05,00,06,9.40
2020,05,05,00,07,9.40
2020,05,05,00,08,9.40
2020,05,05,00,09,9.40
2020,05,05,00,10,9.40
2020,05,05,00,11,9.40
2020,05,05,00,12,9.40
2020,05,05,00,13,9.40
2020,05,05,00,14,9.40
2020,05,05,00,15,9.30
2020,05,05,00,16,9.40
2020,05,05,00,17,9.40
2020,05,05,00,18,9.30
2020,05,05,00,19,9.30
2020,05,05,00,20,9.30
2020,05,05,00,21,9.30
2020,05,05,00,22,9.30
2020,05,05,00,23,9.30
2020,05,05,00,24,9.30
2020,05,05,00,25,9.30
2020,05,05,00,26,9.30
2020,05,05,00,27,9.30
2020,05,05,00,28,9.30
2020,05,05,00,29,9.30
2020,05,05,00,30,9.30
2020,05,05,00,31,9.30
2020,05,05,00,32,9.20
2020,05,05,00,33,9.20
2020,05,05,00,34,9.20
2020,05,05,00,35,9.20
2020,05,05,00,36,9.20
2020,05,05,00,37,9.20
2020,05,05,00,38,9.20
2020,05,05,00,39,9.20
2020,05,05,00,40,9.10
2020,05,05,00,41,9.10
2020,05,05,00,42,9.10
2020,05,05,00,43,9.10
2020,05,05,00,44,9.10
2020,05,05,00,45,9.00
2020,05,05,00,46,9.00
2020,05,05,00,47,9.00
2020,05,05,00,48,8.90
2020,05,05,00,49,8.90
2020,05,05,00,50,8.90
2020,05,05,00,51,8.90
2020,05,05,00,52,8.80
2020,05,05,00,53,8.80
2020,05,05,00,54,8.80
2020,05,05,00,55,8.80
2020,05,05,00,56,8.80
2020,05,05,00,57,8.80
2020,05,05,00,58,8.70
2020,05,05,00,59,8.70
2020,05,05,01,00,8.70
2020,05,05,01,01,8.70
2020,05,05,01,02,8.70
2020,05,05,01,03,8.70
2020,05,05,01,04,8.60
2020,05,05,01,05,8.60
2020,05,05,01,06,8.60
2020,05,05,01,07,8.60
2020,05,05,01,08,8.60
2020,05,05,01,09,8.50
2020,05,05,01,10,8.50
2020,05,05,01,11,8.50
2020,05,05,01,12,8.40
2020,05,05,01,13,8.40
2020,05,05,01,14,8.40
2020,05,05,01,15,8.40
2020,05,05,01,16,8.40
2020,05,05,01,17,8.30
2020,05,05,01,18,8.30
2020,05,05,01,19,8.30
2020,05,05,01,20,8.30
2020,05,05,01,21,8.30
2020,05,05,01,22,8.30
2020,05,05,01,23,8.30
2020,05,05,01,24,8.20
2020,05,05,01,25,8.20
2020,05,05,01,26,8.20
2020,05,05,01,27,8.20
2020,05,05,01,28,8.20
2020,05,05,01,29,8.20
2020,05,05,01,30,8.20
2020,05,05,01,31,8.20
2020,05,05,01,32,8.20
2020,05,05,01,33,8.20
2020,05,05,01,34,8.10
2020,05,05,01,35,8.10
2020,05,05,01,36,8.10
2020,05,05,01,37,8.10
2020,05,05,01,38,8.10
2020,05,05,01,39,8.00
2020,05,05,01,40,8.00
2020,05,05,01,41,8.00
2020,05,05,01,42,8.00
2020,05,05,01,43,8.00
2020,05,05,01,44,7.90
2020,05,05,01,45,7.90
2020,05,05,01,46,7.90
2020,05,05,01,47,7.90
2020,05,05,01,48,7.90
2020,05,05,01,49,7.90
2020,05,05,01,50,7.90
2020,05,05,01,51,7.90
2020,05,05,01,52,7.90
2020,05,05,01,53,7.80
2020,05,05,01,54,7.80
2020,05,05,01,55,7.80
2020,05,05,01,56,7.80
2020,05,05,01,57,7.80
2020,05,05,01,58,7.80
2020,05,05,01,59,7.80
2020,05,05,02,00,7.80
2020,05,05,02,01,7.80
2020,05,05,02,02,7.70
2020,05,05,02,03,7.70
2020,05,05,02,04,7.70
2020,05,05,02,05,7.70
2020,05,05,02,06,7.70
2020,05,05,02,07,7.70
2020,05,05,02,08,7.60
2020,05,05,02,09,7.60
2020,05,05,02,10,7.60
2020,05,05,02,11,7.60
2020,05,05,02,12,7.60
2020,05,05,02,13,7.50
2020,05,05,02,14,7.50
2020,05,05,02,15,7.50
2020,05,05,02,16,7.50
2020,05,05,02,17,7.50
2020,05,05,02,18,7.40
2020,05,05,02,19,7.40
2020,05,05,02,20,7.40
2020,05,05,02,21,7.40
2020,05,05,02,22,7.40
2020,05,05,02,23,7.40
2020,05,05,02,24,7.40
2020,05,05,02,25,7.40
2020,05,05,02,26,7.30
2020,05,05,02,27,7.30
2020,05,05,02,28,7.30
2020,05,05,02,29,7.30
2020,05,05,02,30,7.30
2020,05,05,02,31,7.30
2020,05,05,02,32,7.30
2020,05,05,02,33,7.30
2020,05,05,02,34,7.30
2020,05,05,02,35,7.30
2020,05,05,02,36,7.20
2020,05,05,02,37,7.20
2020,05,05,02,38,7.20
2020,05,05,02,39,7.20
2020,05,05,02,40,7.20
2020,05,05,02,41,7.20
2020,05,05,02,42,7.20
2020,05,05,02,43,7.10
2020,05,05,02,44,7.20
2020,05,05,02,45,7.10
2020,05,05,02,46,7.10
2020,05,05,02,47,7.10
2020,05,05,02,48,7.10
2020,05,05,02,49,7.10
2020,05,05,02,50,7.10
2020,05,05,02,51,7.10
2020,05,05,02,52,7.00
2020,05,05,02,53,7.00
2020,05,05,02,54,7.00
2020,05,05,02,55,7.00
2020,05,05,02,56,7.00
2020,05,05,02,57,7.00
2020,05,05,02,58,6.90
2020,05,05,02,59,6.90
2020,05,05,03,00,6.90
2020,05,05,03,01,6.90
2020,05,05,03,02,6.90
2020,05,05,03,03,6.90
2020,05,05,03,04,6.90
2020,05,05,03,05,6.90
2020,05,05,03,06,6.80
2020,05,05,03,07,6.80
2020,05,05,03,08,6.80
2020,05,05,03,09,6.80
2020,05,05,03,10,6.80
2020,05,05,03,11,6.80
2020,05,05,03,12,6.70
2020,05,05,03,13,6.70
2020,05,05,03,14,6.70
2020,05,05,03,15,6.70
2020,05,05,03,16,6.70
2020,05,05,03,17,6.70
2020,05,05,03,18,6.60
2020,05,05,03,19,6.60
2020,05,05,03,20,6.60
2020,05,05,03,21,6.60
2020,05,05,03,22,6.60
2020,05,05,03,23,6.60
2020,05,05,03,24,6.60
2020,05,05,03,25,6.60
2020,05,05,03,26,6.60
2020,05,05,03,27,6.60
2020,05,05,03,28,6.50
2020,05,05,03,29,6.50
2020,05,05,03,30,6.50
2020,05,05,03,31,6.50
2020,05,05,03,32,6.40
2020,05,05,03,33,6.40
2020,05,05,03,34,6.40
2020,05,05,03,35,6.40
2020,05,05,03,36,6.40
2020,05,05,03,37,6.40
2020,05,05,03,38,6.40
2020,05,05,03,39,6.40
2020,05,05,03,40,6.40
2020,05,05,03,41,6.40
2020,05,05,03,42,6.30
2020,05,05,03,43,6.30
2020,05,05,03,44,6.30
2020,05,05,03,45,6.30
2020,05,05,03,46,6.30
2020,05,05,03,47,6.30
2020,05,05,03,48,6.30
2020,05,05,03,49,6.30
2020,05,05,03,50,6.30
2020,05,05,03,51,6.30
2020,05,05,03,52,6.30
2020,05,05,03,53,6.30
2020,05,05,03,54,6.30
2020,05,05,03,55,6.30
2020,05,05,03,56,6.30
2020,05,05,03,57,6.30
2020,05,05,03,58,6.30
2020,05,05,03,59,6.20
2020,05,05,04,00,6.20
2020,05,05,04,01,6.20
2020,05,05,04,02,6.30
2020,05,05,04,03,6.30
2020,05,05,04,04,6.20
2020,05,05,04,05,6.20
2020,05,05,04,06,6.20
2020,05,05,04,07,6.20
2020,05,05,04,08,6.20
2020,05,05,04,09,6.20
2020,05,05,04,10,6.20
2020,05,05,04,11,6.20
2020,05,05,04,12,6.30
2020,05,05,04,13,6.30
2020,05,05,04,14,6.20
2020,05,05,04,15,6.20
2020,05,05,04,16,6.20
2020,05,05,04,17,6.20
2020,05,05,04,18,6.20
2020,05,05,04,19,6.20
2020,05,05,04,20,6.20
2020,05,05,04,21,6.20
2020,05,05,04,22,6.20
2020,05,05,04,23,6.20
2020,05,05,04,24,6.20
2020,05,05,04,25,6.20
2020,05,05,04,26,6.20
2020,05,05,04,27,6.20
2020,05,05,04,28,6.20
2020,05,05,04,29,6.20
2020,05,05,04,30,6.20
2020,05,05,04,31,6.20
2020,05,05,04,32,6.20
2020,05,05,04,33,6.20
2020,05,05,04,34,6.20
2020,05,05,04,35,6.20
2020,05,05,04,36,6.20
2020,05,05,04,37,6.20
2020,05,05,04,38,6.20
2020,05,05,04,39,6.20
2020,05,05,04,40,6.20
2020,05,05,04,41,6.20
2020,05,05,04,42,6.20
2020,05,05,04,43,6.10
2020,05,05,04,44,6.10
2020,05,05,04,45,6.10
2020,05,05,04,46,6.10
2020,05,05,04,47,6.10
2020,05,05,04,48,6.10
2020,05,05,04,49,6.10
2020,05,05,04,50,6.10
2020,05,05,04,51,6.00
2020,05,05,04,52,6.00
2020,05,05,04,53,6.00
2020,05,05,04,54,6.00
2020,05,05,04,55,6.00
2020,05,05,04,56,5.90
2020,05,05,04,57,5.90
2020,05,05,04,58,5.90
2020,05,05,04,59,5.90
2020,05,05,05,00,5.90
2020,05,05,05,01,5.90
2020,05,05,05,02,5.80
2020,05,05,05,03,5.80
2020,05,05,05,04,5.80
2020,05,05,05,05,5.80
2020,05,05,05,06,5.80
2020,05,05,05,07,5.80
2020,05,05,05,08,5.70
2020,05,05,05,09,5.70
2020,05,05,05,10,5.70
2020,05,05,05,11,5.70
2020,05,05,05,12,5.70
2020,05,05,05,13,5.60
2020,05,05,05,14,5.60
2020,05,05,05,15,5.60
2020,05,05,05,16,5.60
2020,05,05,05,17,5.60
2020,05,05,05,18,5.50
2020,05,05,05,19,5.50
2020,05,05,05,20,5.50
2020,05,05,05,21,5.50
2020,05,05,05,22,5.50
2020,05,05,05,23,5.50
2020,05,05,05,24,5.50
2020,05,05,05,25,5.40
2020,05,05,05,26,5.40
2020,05,05,05,27,5.40
2020,05,05,05,28,5.40
2020,05,05,05,29,5.40
2020,05,05,05,30,5.40
2020,05,05,05,31,5.40
2020,05,05,05,32,5.40
2020,05,05,05,33,5.40
2020,05,05,05,34,5.40
2020,05,05,05,35,5.30
2020,05,05,05,36,5.30
2020,05,05,05,37,5.30
2020,05,05,05,38,5.30
2020,05,05,05,39,5.30
2020,05,05,05,40,5.30
2020,05,05,05,41,5.30
2020,05,05,05,42,5.30
2020,05,05,05,43,5.30
2020,05,05,05,44,5.30
2020,05,05,05,45,5.30
2020,05,05,05,46,5.30
2020,05,05,05,47,5.30
2020,05,05,05,48,5.20
2020,05,05,05,49,5.20
2020,05,05,05,50,5.20
2020,05,05,05,51,5.20
2020,05,05,05,52,5.20
2020,05,05,05,53,5.20
2020,05,05,05,54,5.20
2020,05,05,05,55,5.10
2020,05,05,05,56,5.10
2020,05,05,05,57,5.10
2020,05,05,05,58,5.10
2020,05,05,05,59,5.10
2020,05,05,06,00,5.10
2020,05,05,06,01,5.10
2020,05,05,06,02,5.00
2020,05,05,06,03,5.00
2020,05,05,06,04,5.00
2020,05,05,06,05,5.00
2020,05,05,06,06,4.90
2020,05,05,06,07,4.90
2020,05,05,06,08,4.90
2020,05,05,06,09,4.90
2020,05,05,06,10,4.90
2020,05,05,06,11,4.90
2020,05,05,06,12,4.90
2020,05,05,06,13,4.90
2020,05,05,06,14,4.90
2020,05,05,06,15,4.90
2020,05,05,06,16,4.90
2020,05,05,06,17,4.90
2020,05,05,06,18,4.90
2020,05,05,06,19,4.90
2020,05,05,06,20,4.90
2020,05,05,06,21,4.90
2020,05,05,06,22,4.90
2020,05,05,06,23,4.90
2020,05,05,06,24,4.90
2020,05,05,06,25,4.90
2020,05,05,06,26,4.90
2020,05,05,06,27,4.90
2020,05,05,06,28,4.90
2020,05,05,06,29,4.90
2020,05,05,06,30,4.90
2020,05,05,06,31,4.90
2020,05,05,06,32,4.90
2020,05,05,06,33,4.90
2020,05,05,06,34,4.90
2020,05,05,06,35,4.90
2020,05,05,06,36,4.90
2020,05,05,06,37,4.90
2020,05,05,06,38,4.90
2020,05,05,06,39,4.90
2020,05,05,06,40,4.90
2020,05,05,06,41,4.90
2020,05,05,06,42,4.90
2020,05,05,06,43,4.90
2020,05,05,06,44,4.90
2020,05,05,06,45,4.90
2020,05,05,06,46,4.90
2020,05,05,06,47,4.90
2020,05,05,06,48,4.90
2020,05,05,06,49,5.00
2020,05,05,06,50,5.00
2020,05,05,06,51,5.00
2020,05,05,06,52,5.00
2020,05,05,06,53,5.10
2020,05,05,06,54,5.10
2020,05,05,06,55,5.10
2020,05,05,06,56,5.10
2020,05,05,06,57,5.10
2020,05,05,06,58,5.10
2020,05,05,06,59,5.10
2020,05,05,07,00,5.10
2020,05,05,07,01,5.20
2020,05,05,07,02,5.20
2020,05,05,07,03,5.20
2020,05,05,07,04,5.20
2020,05,05,07,05,5.20
2020,05,05,07,06,5.30
2020,05,05,07,07,5.30
2020,05,05,07,08,5.30
2020,05,05,07,09,5.30
2020,05,05,07,10,5.40
2020,05,05,07,11,5.40
2020,05,05,07,12,5.40
2020,05,05,07,13,5.40
2020,05,05,07,14,5.50
2020,05,05,07,15,5.50
2020,05,05,07,16,5.60
2020,05,05,07,17,5.60
2020,05,05,07,18,5.60
2020,05,05,07,19,5.70
2020,05,05,07,20,5.70
2020,05,05,07,21,5.80
2020,05,05,07,22,5.80
2020,05,05,07,23,5.90
2020,05,05,07,24,5.90
2020,05,05,07,25,6.00
2020,05,05,07,26,6.00
2020,05,05,07,27,6.10
2020,05,05,07,28,6.20
2020,05,05,07,29,6.20
2020,05,05,07,30,6.30
2020,05,05,07,31,6.40
2020,05,05,07,32,6.40
2020,05,05,07,33,6.50
2020,05,05,07,34,6.60
2020,05,05,07,35,6.70
2020,05,05,07,36,6.80
2020,05,05,07,37,6.80
2020,05,05,07,38,6.90
2020,05,05,07,39,7.00
2020,05,05,07,40,7.10
2020,05,05,07,41,7.10
2020,05,05,07,42,7.20
2020,05,05,07,43,7.30
2020,05,05,07,44,7.30
2020,05,05,07,45,7.30
2020,05,05,07,46,7.40
2020,05,05,07,47,7.50
2020,05,05,07,48,7.60
2020,05,05,07,49,7.70
2020,05,05,07,50,7.80
2020,05,05,07,51,7.80
2020,05,05,07,52,7.90
2020,05,05,07,53,7.90
2020,05,05,07,54,8.00
2020,05,05,07,55,8.10
2020,05,05,07,56,8.20
2020,05,05,07,57,8.20
2020,05,05,07,58,8.30
2020,05,05,07,59,8.40
2020,05,05,08,00,8.50
2020,05,05,08,01,8.50
2020,05,05,08,02,8.60
2020,05,05,08,03,8.70
2020,05,05,08,04,8.80
2020,05,05,08,05,8.90
2020,05,05,08,06,9.00
2020,05,05,08,07,9.10
2020,05,05,08,08,9.10
2020,05,05,08,09,9.20
2020,05,05,08,10,9.20
2020,05,05,08,11,9.30
2020,05,05,08,12,9.40
2020,05,05,08,13,9.50
2020,05,05,08,14,9.50
2020,05,05,08,15,9.50
2020,05,05,08,16,9.60
2020,05,05,08,17,9.60
2020,05,05,08,18,9.70
2020,05,05,08,19,9.70
2020,05,05,08,20,9.80
2020,05,05,08,21,9.80
2020,05,05,08,22,9.90
2020,05,05,08,23,9.90
2020,05,05,08,24,10.00
2020,05,05,08,25,9.90
2020,05,05,08,26,10.00
2020,05,05,08,27,10.00
2020,05,05,08,28,10.00
2020,05,05,08,29,10.00
2020,05,05,08,30,10.10
2020,05,05,08,31,10.10
2020,05,05,08,32,10.10
2020,05,05,08,33,10.20
2020,05,05,08,34,10.20
2020,05,05,08,35,10.20
2020,05,05,08,36,10.30
2020,05,05,08,37,10.30
2020,05,05,08,38,10.30
2020,05,05,08,39,10.40
2020,05,05,08,40,10.40
2020,05,05,08,41,10.50
2020,05,05,08,42,10.60
2020,05,05,08,43,10.60
2020,05,05,08,44,10.70
2020,05,05,08,45,10.80
2020,05,05,08,46,10.90
2020,05,05,08,47,11.00
2020,05,05,08,48,11.10
2020,05,05,08,49,11.20
2020,05,05,08,50,11.30
2020,05,05,08,51,11.40
2020,05,05,08,52,11.50
2020,05,05,08,53,11.60
2020,05,05,08,54,11.60
2020,05,05,08,55,11.70
2020,05,05,08,56,11.80
2020,05,05,08,57,11.80
2020,05,05,08,58,11.90
2020,05,05,08,59,11.90
2020,05,05,09,00,11.90
2020,05,05,09,01,11.80
2020,05,05,09,02,11.80
2020,05,05,09,03,11.90
2020,05,05,09,04,12.00
2020,05,05,09,05,12.10
2020,05,05,09,06,12.20
2020,05,05,09,07,12.20
2020,05,05,09,08,12.30
2020,05,05,09,09,12.30
2020,05,05,09,10,12.30
2020,05,05,09,11,12.30
2020,05,05,09,12,12.40
2020,05,05,09,13,12.40
2020,05,05,09,14,12.40
2020,05,05,09,15,12.50
2020,05,05,09,16,12.60
2020,05,05,09,17,12.60
2020,05,05,09,18,12.70
2020,05,05,09,19,12.70
2020,05,05,09,20,12.80
2020,05,05,09,21,12.80
2020,05,05,09,22,12.90
2020,05,05,09,23,12.90
2020,05,05,09,24,12.90
2020,05,05,09,25,12.90
2020,05,05,09,26,13.00
2020,05,05,09,27,13.00
2020,05,05,09,28,13.00
2020,05,05,09,29,13.10
2020,05,05,09,30,13.10
2020,05,05,09,31,13.20
2020,05,05,09,32,13.30
2020,05,05,09,33,13.30
2020,05,05,09,34,13.30
2020,05,05,09,35,13.30
2020,05,05,09,36,13.30
2020,05,05,09,37,13.30
2020,05,05,09,38,13.30
2020,05,05,09,39,13.30
2020,05,05,09,40,13.30
2020,05,05,09,41,13.30
2020,05,05,09,42,13.40
2020,05,05,09,43,13.40
2020,05,05,09,44,13.40
2020,05,05,09,45,13.40
2020,05,05,09,46,13.40
2020,05,05,09,47,13.40
2020,05,05,09,48,13.40
2020,05,05,09,49,13.40
2020,05,05,09,50,13.50
2020,05,05,09,51,13.50
2020,05,05,09,52,13.60
2020,05,05,09,53,13.60
2020,05,05,09,54,13.70
2020,05,05,09,55,13.70
2020,05,05,09,56,13.70
2020,05,05,09,57,13.80
2020,05,05,09,58,13.80
2020,05,05,09,59,13.90
2020,05,05,10,00,13.90
2020,05,05,10,01,13.90
2020,05,05,10,02,14.00
2020,05,05,10,03,14.00
2020,05,05,10,04,14.00
2020,05,05,10,05,14.00
2020,05,05,10,06,14.00
2020,05,05,10,07,14.00
2020,05,05,10,08,14.10
2020,05,05,10,09,14.30
2020,05,05,10,10,14.40
2020,05,05,10,11,14.40
2020,05,05,10,12,14.40
2020,05,05,10,13,14.50
2020,05,05,10,14,14.40
2020,05,05,10,15,14.40
2020,05,05,10,16,14.30
2020,05,05,10,17,14.20
2020,05,05,10,18,14.20
2020,05,05,10,19,14.20
2020,05,05,10,20,14.30
2020,05,05,10,21,14.30
2020,05,05,10,22,14.30
2020,05,05,10,23,14.30
2020,05,05,10,24,14.40
2020,05,05,10,25,14.40
2020,05,05,10,26,14.50
2020,05,05,10,27,14.40
2020,05,05,10,28,14.40
2020,05,05,10,29,14.40
2020,05,05,10,30,14.40
2020,05,05,10,31,14.40
2020,05,05,10,32,14.40
2020,05,05,10,33,14.40
2020,05,05,10,34,14.40
2020,05,05,10,35,14.40
2020,05,05,10,36,14.30
2020,05,05,10,37,14.30
2020,05,05,10,38,14.40
2020,05,05,10,39,14.50
2020,05,05,10,40,14.50
2020,05,05,10,41,14.60
2020,05,05,10,42,14.60
2020,05,05,10,43,14.70
2020,05,05,10,44,14.70
2020,05,05,10,45,14.80
2020,05,05,10,46,14.80
2020,05,05,10,47,14.80
2020,05,05,10,48,14.80
2020,05,05,10,49,14.80
2020,05,05,10,50,14.80
2020,05,05,10,51,14.70
2020,05,05,10,52,14.60
2020,05,05,10,53,14.60
2020,05,05,10,54,14.60
2020,05,05,10,55,14.60
2020,05,05,10,56,14.60
2020,05,05,10,57,14.70
2020,05,05,10,58,14.70
2020,05,05,10,59,14.70
2020,05,05,11,00,14.80
2020,05,05,11,01,14.90
2020,05,05,11,02,15.00
2020,05,05,11,03,15.00
2020,05,05,11,04,15.00
2020,05,05,11,05,14.90
2020,05,05,11,06,14.90
2020,05,05,11,07,14.90
2020,05,05,11,08,14.90
2020,05,05,11,09,14.90
2020,05,05,11,10,15.00
2020,05,05,11,11,15.10
2020,05,05,11,12,15.20
2020,05,05,11,13,15.30
2020,05,05,11,14,15.40
2020,05,05,11,15,15.40
2020,05,05,11,16,15.40
2020,05,05,11,17,15.40
2020,05,05,11,18,15.30
2020,05,05,11,19,15.30
2020,05,05,11,20,15.30
2020,05,05,11,21,15.20
2020,05,05,11,22,15.10
2020,05,05,11,23,15.00
2020,05,05,11,24,14.90
2020,05,05,11,25,14.80
2020,05,05,11,26,14.80
2020,05,05,11,27,14.90
2020,05,05,11,28,15.00
2020,05,05,11,29,15.10
2020,05,05,11,30,15.10
2020,05,05,11,31,15.10
2020,05,05,11,32,15.10
2020,05,05,11,33,15.20
2020,05,05,11,34,15.20
2020,05,05,11,35,15.20
2020,05,05,11,36,15.20
2020,05,05,11,37,15.10
2020,05,05,11,38,15.10
2020,05,05,11,39,15.10
2020,05,05,11,40,15.10
2020,05,05,11,41,15.10
2020,05,05,11,42,15.20
2020,05,05,11,43,15.20
2020,05,05,11,44,15.30
2020,05,05,11,45,15.30
2020,05,05,11,46,15.30
2020,05,05,11,47,15.30
2020,05,05,11,48,15.30
2020,05,05,11,49,15.40
2020,05,05,11,50,15.50
2020,05,05,11,51,15.60
2020,05,05,11,52,15.70
2020,05,05,11,53,15.80
2020,05,05,11,54,16.00
2020,05,05,11,55,16.10
2020,05,05,11,56,16.20
2020,05,05,11,57,16.30
2020,05,05,11,58,16.30
2020,05,05,11,59,16.30
2020,05,05,12,00,16.20
2020,05,05,12,01,16.10
2020,05,05,12,02,15.90
2020,05,05,12,03,15.70
2020,05,05,12,04,15.50
2020,05,05,12,05,15.50
2020,05,05,12,06,15.50
2020,05,05,12,07,15.50
2020,05,05,12,08,15.50
2020,05,05,12,09,15.40
2020,05,05,12,10,15.40
2020,05,05,12,11,15.50
2020,05,05,12,12,15.60
2020,05,05,12,13,15.70
2020,05,05,12,14,15.80
2020,05,05,12,15,15.90
2020,05,05,12,16,15.90
2020,05,05,12,17,16.00
2020,05,05,12,18,16.00
2020,05,05,12,19,16.00
2020,05,05,12,20,16.10
2020,05,05,12,21,16.10
2020,05,05,12,22,16.20
2020,05,05,12,23,16.30
2020,05,05,12,24,16.50
2020,05,05,12,25,16.50
2020,05,05,12,26,16.60
2020,05,05,12,27,16.50
2020,05,05,12,28,16.40
2020,05,05,12,29,16.30
2020,05,05,12,30,16.20
2020,05,05,12,31,16.20
2020,05,05,12,32,16.20
2020,05,05,12,33,16.20
2020,05,05,12,34,16.20
2020,05,05,12,35,16.20
2020,05,05,12,36,16.20
2020,05,05,12,37,16.20
2020,05,05,12,38,16.20
2020,05,05,12,39,16.30
2020,05,05,12,40,16.30
2020,05,05,12,41,16.30
2020,05,05,12,42,16.30
2020,05,05,12,43,16.30
2020,05,05,12,44,16.40
2020,05,05,12,45,16.40
2020,05,05,12,46,16.40
2020,05,05,12,47,16.40
2020,05,05,12,48,16.50
2020,05,05,12,49,16.50
2020,05,05,12,50,16.40
2020,05,05,12,51,16.40
2020,05,05,12,52,16.40
2020,05,05,12,53,16.50
2020,05,05,12,54,16.60
2020,05,05,12,55,16.70
2020,05,05,12,56,16.80
2020,05,05,12,57,16.80
2020,05,05,12,58,16.90
2020,05,05,12,59,16.90
2020,05,05,13,00,16.90
2020,05,05,13,01,16.90
2020,05,05,13,02,16.90
2020,05,05,13,03,16.80
2020,05,05,13,04,16.80
2020,05,05,13,05,16.70
2020,05,05,13,06,16.50
2020,05,05,13,07,16.50
2020,05,05,13,08,16.40
2020,05,05,13,09,16.40
2020,05,05,13,10,16.40
2020,05,05,13,11,16.40
2020,05,05,13,12,16.40
2020,05,05,13,13,16.40
2020,05,05,13,14,16.40
2020,05,05,13,15,16.50
2020,05,05,13,16,16.60
2020,05,05,13,17,16.60
2020,05,05,13,18,16.70
2020,05,05,13,19,16.70
2020,05,05,13,20,16.60
2020,05,05,13,21,16.70
2020,05,05,13,22,16.70
2020,05,05,13,23,16.70
2020,05,05,13,24,16.80
2020,05,05,13,25,16.80
2020,05,05,13,26,16.90
2020,05,05,13,27,16.90
2020,05,05,13,28,16.90
2020,05,05,13,29,16.70
2020,05,05,13,30,16.60
2020,05,05,13,31,16.50
2020,05,05,13,32,16.40
2020,05,05,13,33,16.40
2020,05,05,13,34,16.40
2020,05,05,13,35,16.40
2020,05,05,13,36,16.40
2020,05,05,13,37,16.40
2020,05,05,13,38,16.50
2020,05,05,13,39,16.50
2020,05,05,13,40,16.40
2020,05,05,13,41,16.50
2020,05,05,13,42,16.50
2020,05,05,13,43,16.40
2020,05,05,13,44,16.40
2020,05,05,13,45,16.50
2020,05,05,13,46,16.50
2020,05,05,13,47,16.50
2020,05,05,13,48,16.50
2020,05,05,13,49,16.60
2020,05,05,13,50,16.60
2020,05,05,13,51,16.70
2020,05,05,13,52,16.80
2020,05,05,13,53,16.90
2020,05,05,13,54,17.00
2020,05,05,13,55,17.00
2020,05,05,13,56,17.00
2020,05,05,13,57,17.00
2020,05,05,13,58,17.00
2020,05,05,13,59,17.00
2020,05,05,14,00,17.00
2020,05,05,14,01,17.10
2020,05,05,14,02,17.10
2020,05,05,14,03,17.20
2020,05,05,14,04,17.20
2020,05,05,14,05,17.20
2020,05,05,14,06,17.20
2020,05,05,14,07,17.20
2020,05,05,14,08,17.30
2020,05,05,14,09,17.20
2020,05,05,14,10,17.20
2020,05,05,14,11,17.20
2020,05,05,14,12,17.30
2020,05,05,14,13,17.30
2020,05,05,14,14,17.40
2020,05,05,14,15,17.40
2020,05,05,14,16,17.40
2020,05,05,14,17,17.40
2020,05,05,14,18,17.30
2020,05,05,14,19,17.20
2020,05,05,14,20,17.20
2020,05,05,14,21,17.20
2020,05,05,14,22,17.30
2020,05,05,14,23,17.40
2020,05,05,14,24,17.40
2020,05,05,14,25,17.30
2020,05,05,14,26,17.30
2020,05,05,14,27,17.30
2020,05,05,14,28,17.30
2020,05,05,14,29,17.40
2020,05,05,14,30,17.40
2020,05,05,14,31,17.40
2020,05,05,14,32,17.40
2020,05,05,14,33,17.30
2020,05,05,14,34,17.30
2020,05,05,14,35,17.30
2020,05,05,14,36,17.40
2020,05,05,14,37,17.40
2020,05,05,14,38,17.40
2020,05,05,14,39,17.40
2020,05,05,14,40,17.30
2020,05,05,14,41,17.40
2020,05,05,14,42,17.40
2020,05,05,14,43,17.40
2020,05,05,14,44,17.50
2020,05,05,14,45,17.50
2020,05,05,14,46,17.60
2020,05,05,14,47,17.60
2020,05,05,14,48,17.50
2020,05,05,14,49,17.50
2020,05,05,14,50,17.50
2020,05,05,14,51,17.60
2020,05,05,14,52,17.50
2020,05,05,14,53,17.50
2020,05,05,14,54,17.50
2020,05,05,14,55,17.50
2020,05,05,14,56,17.60
2020,05,05,14,57,17.60
2020,05,05,14,58,17.70
2020,05,05,14,59,17.70
2020,05,05,15,00,17.80
2020,05,05,15,01,17.90
2020,05,05,15,02,17.90
2020,05,05,15,03,17.90
2020,05,05,15,04,17.90
2020,05,05,15,05,17.90
2020,05,05,15,06,17.90
2020,05,05,15,07,17.90
2020,05,05,15,08,18.00
2020,05,05,15,09,18.00
2020,05,05,15,10,18.10
2020,05,05,15,11,18.10
2020,05,05,15,12,18.10
2020,05,05,15,13,18.10
2020,05,05,15,14,18.10
2020,05,05,15,15,18.20
2020,05,05,15,16,18.10
2020,05,05,15,17,18.10
2020,05,05,15,18,18.00
2020,05,05,15,19,18.00
2020,05,05,15,20,18.00
2020,05,05,15,21,18.00
2020,05,05,15,22,18.00
2020,05,05,15,23,18.10
2020,05,05,15,24,18.10
2020,05,05,15,25,18.10
2020,05,05,15,26,18.20
2020,05,05,15,27,18.20
2020,05,05,15,28,18.30
2020,05,05,15,29,18.30
2020,05,05,15,30,18.30
2020,05,05,15,31,18.30
2020,05,05,15,32,18.40
2020,05,05,15,33,18.30
2020,05,05,15,34,18.30
2020,05,05,15,35,18.30
2020,05,05,15,36,18.20
2020,05,05,15,37,18.20
2020,05,05,15,38,18.20
2020,05,05,15,39,18.20
2020,05,05,15,40,18.30
2020,05,05,15,41,18.30
2020,05,05,15,42,18.30
2020,05,05,15,43,18.30
2020,05,05,15,44,18.30
2020,05,05,15,45,18.40
2020,05,05,15,46,18.40
2020,05,05,15,47,18.40
2020,05,05,15,48,18.50
2020,05,05,15,49,18.60
2020,05,05,15,50,18.60
2020,05,05,15,51,18.60
2020,05,05,15,52,18.60
2020,05,05,15,53,18.60
2020,05,05,15,54,18.60
2020,05,05,15,55,18.60
2020,05,05,15,56,18.60
2020,05,05,15,57,18.60
2020,05,05,15,58,18.70
2020,05,05,15,59,18.70
2020,05,05,16,00,18.70
2020,05,05,16,01,18.70
2020,05,05,16,02,18.80
2020,05,05,16,03,18.80
2020,05,05,16,04,18.80
2020,05,05,16,05,18.70
2020,05,05,16,06,18.60
2020,05,05,16,07,18.50
2020,05,05,16,08,18.40
2020,05,05,16,09,18.40
2020,05,05,16,10,18.30
2020,05,05,16,11,18.30
2020,05,05,16,12,18.20
2020,05,05,16,13,18.20
2020,05,05,16,14,18.20
2020,05,05,16,15,18.20
2020,05,05,16,16,18.20
2020,05,05,16,17,18.20
2020,05,05,16,18,18.30
2020,05,05,16,19,18.40
2020,05,05,16,20,18.40
2020,05,05,16,21,18.40
2020,05,05,16,22,18.40
2020,05,05,16,23,18.40
2020,05,05,16,24,18.30
2020,05,05,16,25,18.30
2020,05,05,16,26,18.30
2020,05,05,16,27,18.20
2020,05,05,16,28,18.20
2020,05,05,16,29,18.30
2020,05,05,16,30,18.30
2020,05,05,16,31,18.30
2020,05,05,16,32,18.30
2020,05,05,16,33,18.30
2020,05,05,16,34,18.30
2020,05,05,16,35,18.30
2020,05,05,16,36,18.40
2020,05,05,16,37,18.40
2020,05,05,16,38,18.40
2020,05,05,16,39,18.40
2020,05,05,16,40,18.40
2020,05,05,16,41,18.40
2020,05,05,16,42,18.30
2020,05,05,16,43,18.30
2020,05,05,16,44,18.30
2020,05,05,16,45,18.30
2020,05,05,16,46,18.40
2020,05,05,16,47,18.40
2020,05,05,16,48,18.40
2020,05,05,16,49,18.40
2020,05,05,16,50,18.50
2020,05,05,16,51,18.50
2020,05,05,16,52,18.50
2020,05,05,16,53,18.40
2020,05,05,16,54,18.40
2020,05,05,16,55,18.40
2020,05,05,16,56,18.30
2020,05,05,16,57,18.30
2020,05,05,16,58,18.30
2020,05,05,16,59,18.30
2020,05,05,17,00,18.30
2020,05,05,17,01,18.30
2020,05,05,17,02,18.30
2020,05,05,17,03,18.30
2020,05,05,17,04,18.30
2020,05,05,17,05,18.30
2020,05,05,17,06,18.30
2020,05,05,17,07,18.30
2020,05,05,17,08,18.30
2020,05,05,17,09,18.30
2020,05,05,17,10,18.30
2020,05,05,17,11,18.40
2020,05,05,17,12,18.30
2020,05,05,17,13,18.30
2020,05,05,17,14,18.30
2020,05,05,17,15,18.30
2020,05,05,17,16,18.30
2020,05,05,17,17,18.30
2020,05,05,17,18,18.20
2020,05,05,17,19,18.20
2020,05,05,17,20,18.20
2020,05,05,17,21,18.20
2020,05,05,17,22,18.20
2020,05,05,17,23,18.10
2020,05,05,17,24,18.10
2020,05,05,17,25,18.10
2020,05,05,17,26,18.00
2020,05,05,17,27,18.00
2020,05,05,17,28,17.90
2020,05,05,17,29,17.90
2020,05,05,17,30,17.90
2020,05,05,17,31,18.00
2020,05,05,17,32,18.00
2020,05,05,17,33,18.00
2020,05,05,17,34,18.10
2020,05,05,17,35,18.10
2020,05,05,17,36,18.00
2020,05,05,17,37,18.00
2020,05,05,17,38,18.00
2020,05,05,17,39,18.00
2020,05,05,17,40,18.00
2020,05,05,17,41,17.90